Eau Claire, WI

4:48 AM CST on February 24, 2018 (GMT -0600)
Chippewa Valley Regional

Weather History for KEAU - July, 2013

Change the Weather History Date:

Friday, July 5, 2013

  Actual Average Record
Temperature  
Mean Temperature 76 °F 71 °F  
Max Temperature 89 °F 83 °F 99 °F (1948)
Min Temperature 62 °F 60 °F 46 °F (1951)
Degree Days  
Heating Degree Days 0 0  
Month to date heating degree days 0 0  
Since 1 June heating degree days 63 62  
Since 1 July heating degree days 0 0  
Cooling Degree Days 11 7  
Month to date cooling degree days 27 34  
Year to date cooling degree days 149 186  
Since 1 June cooling degree days 117 154  
Growing Degree Days 26 (Base 50)    
Moisture  
Dew Point 58 °F    
Average Humidity 58    
Maximum Humidity 84    
Minimum Humidity 32    
Precipitation  
Precipitation 0.00 in 0.13 in 1.95 in (1935)
Month to date precipitation 0.00 0.63  
Year to date precipitation 25.91 14.40  
Snow  
Snow 0.00 in 0.00 in 0.00 in ()
Month to date snowfall 0.0 0.0  
Since 1 June snowfall 0.0 0.0  
Since 1 July snowfall 0.0 0.0  
Snow Depth 0.00 in    
Sea Level Pressure  
Sea Level Pressure 29.91 in    
Wind  
Wind Speed 10 mph (South)    
Max Wind Speed 22 mph    
Max Gust Speed 29 mph    
Visibility 10 miles    
Events      
T = Trace of Precipitation, MM = Missing Value Source: NWS Daily Summary

Daily Weather History Graph

Daily Weather History Graph

Search for Another Location

Airport or City:

Trip Planner

Search our weather history database for the weather conditions in past years. The results will help you decide how hot, cold, wet, or windy it might be!

Date:

Astronomy

Jul. 05, 2013 Rise Set
Actual Time 5:26 AM CDT 8:54 PM CDT
Civil Twilight 4:49 AM CDT 9:31 PM CDT
Nautical Twilight 4:01 AM CDT 10:19 PM CDT
Astronomical Twilight 2:58 AM CDT 11:21 PM CDT
Moon 3:28 AM CDT (7/5) 6:47 PM CDT (7/5)
Length of Visible Light 16h 41m
Length of Day
15h 28m
Waning Crescent, 6% of the Moon is Illuminated
Jul 5
Waning Crescent
Jul 8
New
Jul 15
First Quarter
Jul 22
Full
Jul 29
Last Quarter

Hourly Weather History & Observations

Time (CDT) Temp. Heat Index Dew Point Humidity Pressure Visibility Wind Dir Wind Speed Gust Speed Precip Events Conditions
12:56 AM 71.1 °F - 60.1 °F 68% 29.94 in 10.0 mi South 8.1 mph - N/A   Clear
1:56 AM 70.0 °F - 59.0 °F 68% 29.93 in 10.0 mi South 6.9 mph - N/A   Clear
2:56 AM 68.0 °F - 59.0 °F 73% 29.93 in 10.0 mi South 4.6 mph - N/A   Clear
3:56 AM 64.0 °F - 59.0 °F 84% 29.94 in 10.0 mi Calm Calm - N/A   Clear
4:56 AM 62.1 °F - 57.9 °F 86% 29.94 in 10.0 mi Calm Calm - N/A   Clear
5:56 AM 64.0 °F - 57.9 °F 80% 29.94 in 10.0 mi South 5.8 mph - N/A   Clear
6:56 AM 68.0 °F - 57.9 °F 70% 29.95 in 10.0 mi SSW 4.6 mph - N/A   Clear
7:56 AM 71.1 °F - 57.9 °F 63% 29.96 in 10.0 mi South 8.1 mph - N/A   Clear
8:56 AM 75.9 °F - 59.0 °F 56% 29.96 in 10.0 mi South 10.4 mph - N/A   Clear
9:56 AM 79.0 °F - 57.9 °F 48% 29.95 in 10.0 mi SSW 11.5 mph 18.4 mph N/A   Clear
10:56 AM 82.9 °F 82.6 °F 57.9 °F 42% 29.94 in 10.0 mi SSW 12.7 mph - N/A   Clear
11:56 AM 84.9 °F 83.9 °F 57.0 °F 38% 29.92 in 10.0 mi SSW 16.1 mph - N/A   Clear
12:56 PM 87.1 °F 85.7 °F 55.9 °F 35% 29.90 in 10.0 mi South 15.0 mph 21.9 mph N/A   Clear
1:56 PM 87.1 °F 85.7 °F 55.9 °F 35% 29.89 in 10.0 mi South 18.4 mph 28.8 mph N/A   Clear
2:56 PM 89.1 °F 87.3 °F 55.9 °F 32% 29.89 in 10.0 mi SSW 15.0 mph 21.9 mph N/A   Partly Cloudy
3:56 PM 88.0 °F 86.7 °F 57.0 °F 35% 29.88 in 10.0 mi South 15.0 mph 20.7 mph N/A   Clear
4:56 PM 86.0 °F 84.9 °F 57.0 °F 37% 29.88 in 10.0 mi South 12.7 mph 26.5 mph N/A   Clear
5:56 PM 84.9 °F 84.2 °F 57.9 °F 40% 29.87 in 10.0 mi South 12.7 mph - N/A   Clear
6:56 PM 82.9 °F 82.4 °F 57.0 °F 41% 29.86 in 10.0 mi South 13.8 mph 21.9 mph N/A   Clear
7:56 PM 82.0 °F 82.0 °F 57.9 °F 44% 29.86 in 10.0 mi South 15.0 mph - N/A   Clear
8:56 PM 81.0 °F 81.1 °F 57.9 °F 45% 29.86 in 10.0 mi South 11.5 mph - N/A   Clear
9:56 PM 79.0 °F - 59.0 °F 50% 29.88 in 10.0 mi South 10.4 mph - N/A   Mostly Cloudy
10:56 PM 78.1 °F - 59.0 °F 52% 29.88 in 10.0 mi South 10.4 mph - N/A   Mostly Cloudy
11:56 PM 77.0 °F - 59.0 °F 54% 29.89 in 10.0 mi South 10.4 mph - N/A   Partly Cloudy